Location: *
(48.4333°N, 5.0333°W)
Time: 13:25:26
(UTC+00:00)

Cosmos 1461 - Pass Details

Date: 09 April 2020
Orbit: 507 x 659 km, 65.0° (Epoch: 26 May)

Event Time Altitude Azimuth Distance (km) Brightness Sun altitude
Rises 20:33:51 0° 315° (NW) 2,896 8.1 -14.8°
Reaches altitude 10° 20:36:14 10° 307° (NW) 2,009 7.1 -15.1°
Maximum altitude 20:40:22 35° 242° (WSW) 1,047 4.5 -15.7°
Enters shadow 20:44:21 11° 179° (S) 1,970 5.3 -16.2°
